Regional Weather Roundup
Issued by NWS

Home | Current Version | Previous Version | Text Only | Print | Product List | Glossary On
Versions: 1 2 3 4 5 6 7 8 9 10 11 12 13 14 15 16 17 18 19 20 21 22 23 24 25 26 27 28 29 30 31 32 33 34 35 36 37 38 39 40 41 42 43 44 45 46 47 48 49 50
000
ASUS43 KFSD 291610
RWRSD

WEATHER ROUNDUP FOR SOUTH DAKOTA
NATIONAL WEATHER SERVICE SIOUX FALLS SD
1100 AM CDT WED OCT 29 2014

NOTE: "FAIR" INDICATES FEW OR NO CLOUDS BELOW 12,000 FEET WITH NO
SIGNIFICANT WEATHER AND/OR OBSTRUCTIONS TO VISIBILITY.


SDZ001>005-009-010-012>017-291700-
NORTHWEST AND NORTH CENTRAL SOUTH DAKOTA

CITY           SKY/WX    TMP DP  RH WIND       PRES   REMARKS
BUFFALO          N/A     39  27  62 E3        29.91F
FAITH            N/A     38  28  67 S16       30.00F
MOBRIDGE       SUNNY     41  34  76 S13       30.04F
$$

SDZ012>016-024>037-041>051-057-063-072>074-291700-
SOUTHWEST AND SOUTH CENTRAL SOUTH DAKOTA

CITY           SKY/WX    TMP DP  RH WIND       PRES   REMARKS
RAPID CTY ARPT SUNNY     42  28  57 CALM      30.01F
PIERRE         SUNNY     38  31  76 SE14      30.08F
CUSTER         SUNNY     50  16  25 W7        30.05F
ELLSWORTH AFB  SUNNY     52  24  33 W5        30.00F
PHILIP         SUNNY     35  27  72 CALM      30.05F
PINE RIDGE     SUNNY     45  26  47 W6        30.06F
SPEARFISH      FAIR      55  27  33 CALM      30.00F
WINNER         FAIR      47  28  47 S12G17    30.10F
$$

SDZ004>011-016>023-039-040-291700-
NORTHEAST SOUTH DAKOTA

CITY           SKY/WX    TMP DP  RH WIND       PRES   REMARKS
ABERDEEN       SUNNY     42  30  62 VRB5      30.14F
WATERTOWN      CLOUDY    36  30  79 NW6       30.15S
SISSETON         N/A     37  28  70 NW3       30.15F
$$

SDZ017-020-022-023-036>040-048>070-291700-
SOUTHEAST SOUTH DAKOTA

CITY           SKY/WX    TMP DP  RH WIND       PRES   REMARKS
SIOUX FALLS    MOSUNNY   43  33  68 CALM      30.18F
HURON          SUNNY     41  29  62 VRB5      30.16F
CHAMBERLAIN    SUNNY     40  32  72 SE9       30.14F
MITCHELL       SUNNY     40  32  73 E3        30.19S
YANKTON        SUNNY     39  32  75 CALM      30.21F
$$

ABBREVIATIONS USED IN REMARKS
   TC - TEMPERATURE IN CELSIUS
  WCI - WIND CHILL INDEX
   HX - HEAT INDEX
  VSB - VISIBILITY




USA.gov is the U.S. government's official web portal to all federal, state and local government web resources and services.